When you browse on this site, cookies collect data to enhance your experience and personalize the content and advertising you see.
Visit our Privacy Policy to learn more. By continuing to use the site, you agree to this use of cookies and data.
  • In Hungary
  • List of Countries
  • For 7 days
  • Water Temperature
  • Satellite Maps
  • Weather Map
  • News
  • Weather Widgets
  • user-avatar
    Login

    Hourly Weather Jodlow

    Today, 23 May, Thursday

    Time Temperature Precipitation Wind Pressure Humidity
    00:00 +10°C° 0.1 mm 5 mps 755 mmHg 92%
    01:00 +11°C° 0 mm 4 mps 755 mmHg 92%
    02:00 +11°C° 0.1 mm 4 mps 755 mmHg 92%
    03:00 +11°C° 0.1 mm 4 mps 755 mmHg 92%
    04:00 +9°C° 0.1 mm 5 mps 756 mmHg 91%
    05:00 +9°C° 0.1 mm 5 mps 756 mmHg 91%
    06:00 +10°C° 0.1 mm 4 mps 756 mmHg 90%
    07:00 +10°C° 0.1 mm 4 mps 756 mmHg 89%
    08:00 +11°C° 0 mm 4 mps 756 mmHg 85%
    09:00 +11°C° 0 mm 4 mps 757 mmHg 82%
    10:00 +12°C° 0 mm 4 mps 757 mmHg 78%
    11:00 +13°C° 0 mm 4 mps 757 mmHg 72%
    12:00 +14°C° 0 mm 4 mps 757 mmHg 66%
    13:00 +17°C° 0 mm 4 mps 757 mmHg 59%
    14:00 +17°C° 0 mm 3 mps 757 mmHg 60%
    15:00 +17°C° 0 mm 3 mps 757 mmHg 60%
    16:00 +18°C° 0 mm 2 mps 756 mmHg 60%
    17:00 +17°C° 0 mm 2 mps 756 mmHg 63%
    18:00 +16°C° 0 mm 2 mps 756 mmHg 67%
    19:00 +16°C° 0 mm 1 mps 756 mmHg 70%
    20:00 +14°C° 0 mm 1 mps 757 mmHg 73%
    21:00 +13°C° 0 mm 1 mps 757 mmHg 76%
    22:00 +10°C° 0 mm 2 mps 757 mmHg 78%
    23:00 +10°C° 0 mm 1 mps 757 mmHg 78%

    Tomorrow, 24 May, Friday

    Time Temperature Precipitation Wind Pressure Humidity
    00:00 +10°C° 0 mm 1 mps 757 mmHg 77%
    01:00 +9°C° 0 mm 1 mps 757 mmHg 77%
    02:00 +9°C° 0 mm 1 mps 757 mmHg 76%
    03:00 +8°C° 0 mm 1 mps 757 mmHg 76%
    04:00 +8°C° 0 mm 1 mps 757 mmHg 75%
    05:00 +10°C° 0 mm 1 mps 757 mmHg 70%
    06:00 +12°C° 0 mm 1 mps 757 mmHg 66%
    07:00 +14°C° 0 mm 1 mps 757 mmHg 61%
    08:00 +16°C° 0 mm 1 mps 756 mmHg 55%
    09:00 +19°C° 0 mm 1 mps 756 mmHg 50%
    10:00 +21°C° 0 mm 1 mps 756 mmHg 44%
    11:00 +22°C° 0 mm 1 mps 756 mmHg 42%
    12:00 +21°C° 0 mm 0 mps 755 mmHg 39%
    13:00 +22°C° 0 mm 0 mps 755 mmHg 36%
    14:00 +22°C° 0 mm 0 mps 755 mmHg 36%
    15:00 +24°C° 0 mm 1 mps 754 mmHg 36%
    16:00 +24°C° 0 mm 1 mps 754 mmHg 36%
    17:00 +22°C° 0 mm 1 mps 754 mmHg 44%
    18:00 +21°C° 0 mm 1 mps 753 mmHg 51%
    19:00 +19°C° 0 mm 1 mps 753 mmHg 59%
    20:00 +17°C° 0 mm 2 mps 753 mmHg 62%
    21:00 +16°C° 0 mm 2 mps 753 mmHg 65%
    22:00 +14°C° 0 mm 2 mps 753 mmHg 68%
    23:00 +14°C° 0 mm 2 mps 753 mmHg 72%

    Day after tomorrow, 25 May, Saturday

    Time Temperature Precipitation Wind Pressure Humidity
    00:00 +14°C° 0 mm 2 mps 753 mmHg 77%
    01:00 +13°C° 0 mm 2 mps 753 mmHg 81%
    02:00 +13°C° 0 mm 2 mps 753 mmHg 85%
    03:00 +13°C° 0 mm 2 mps 753 mmHg 89%
    04:00 +12°C° 0 mm 2 mps 753 mmHg 92%
    05:00 +13°C° 0 mm 3 mps 754 mmHg 88%
    06:00 +14°C° 0 mm 3 mps 754 mmHg 83%
    07:00 +16°C° 0 mm 3 mps 754 mmHg 79%
    08:00 +17°C° 0 mm 4 mps 754 mmHg 70%
    09:00 +18°C° 0 mm 4 mps 754 mmHg 61%
    10:00 +19°C° 0 mm 4 mps 754 mmHg 51%
    11:00 +20°C° 0 mm 5 mps 754 mmHg 49%
    12:00 +21°C° 0 mm 5 mps 754 mmHg 47%
    13:00 +21°C° 0 mm 5 mps 754 mmHg 45%
    14:00 +21°C° 0 mm 5 mps 754 mmHg 47%
    15:00 +21°C° 0 mm 4 mps 754 mmHg 48%
    16:00 +21°C° 0 mm 4 mps 753 mmHg 50%
    17:00 +20°C° 0 mm 3 mps 753 mmHg 55%
    18:00 +19°C° 0 mm 3 mps 753 mmHg 60%
    19:00 +18°C° 0 mm 2 mps 753 mmHg 65%
    20:00 +16°C° 0 mm 2 mps 754 mmHg 70%
    21:00 +15°C° 0 mm 2 mps 754 mmHg 74%
    22:00 +13°C° 0 mm 2 mps 754 mmHg 79%
    23:00 +12°C° 0 mm 3 mps 754 mmHg 83%

    26 May, Sunday

    Time Temperature Precipitation Wind Pressure Humidity
    00:00 +11°C° 0 mm 3 mps 754 mmHg 87%
    01:00 +10°C° 0 mm 3 mps 754 mmHg 91%
    02:00 +10°C° 0 mm 3 mps 754 mmHg 92%
    03:00 +9°C° 0 mm 3 mps 754 mmHg 94%
    04:00 +8°C° 0 mm 3 mps 754 mmHg 96%
    05:00 +10°C° 0 mm 3 mps 753 mmHg 88%
    06:00 +11°C° 0 mm 4 mps 753 mmHg 80%
    07:00 +12°C° 0 mm 4 mps 753 mmHg 72%
    08:00 +14°C° 0 mm 4 mps 753 mmHg 67%
    09:00 +15°C° 0 mm 5 mps 753 mmHg 62%
    10:00 +17°C° 0 mm 5 mps 753 mmHg 57%
    11:00 +17°C° 0.1 mm 5 mps 753 mmHg 57%
    12:00 +19°C° 0.1 mm 6 mps 752 mmHg 56%
    13:00 +19°C° 0.1 mm 6 mps 752 mmHg 56%
    14:00 +19°C° 0 mm 6 mps 752 mmHg 56%
    15:00 +19°C° 0 mm 6 mps 752 mmHg 56%
    16:00 +19°C° 0 mm 5 mps 752 mmHg 56%
    17:00 +18°C° 0 mm 4 mps 752 mmHg 60%
    18:00 +17°C° 0 mm 4 mps 752 mmHg 64%
    19:00 +16°C° 0 mm 3 mps 752 mmHg 68%
    20:00 +15°C° 0 mm 2 mps 752 mmHg 72%
    21:00 +14°C° 0 mm 2 mps 752 mmHg 77%
    22:00 +12°C° 0 mm 1 mps 752 mmHg 81%
    23:00 +13°C° 0 mm 1 mps 752 mmHg 81%

    27 May, Monday

    Time Temperature Precipitation Wind Pressure Humidity
    00:00 +13°C° 0 mm 2 mps 752 mmHg 81%
    01:00 +14°C° 0 mm 2 mps 752 mmHg 81%
    02:00 +13°C° 0 mm 2 mps 752 mmHg 85%
    03:00 +12°C° 0 mm 2 mps 751 mmHg 88%
    04:00 +12°C° 0 mm 2 mps 751 mmHg 92%
    05:00 +13°C° 0 mm 3 mps 751 mmHg 85%
    06:00 +14°C° 0 mm 3 mps 750 mmHg 78%
    07:00 +17°C° 0 mm 3 mps 750 mmHg 72%
    08:00 +19°C° 0 mm 4 mps 750 mmHg 67%
    09:00 +20°C° 0 mm 4 mps 750 mmHg 61%
    10:00 +22°C° 0 mm 4 mps 749 mmHg 56%
    11:00 +23°C° 0 mm 5 mps 749 mmHg 53%
    12:00 +25°C° 0 mm 5 mps 748 mmHg 50%
    13:00 +26°C° 0 mm 5 mps 748 mmHg 47%
    14:00 +26°C° 0.3 mm 4 mps 747 mmHg 52%
    15:00 +25°C° 0.3 mm 4 mps 747 mmHg 56%
    16:00 +25°C° 0.3 mm 3 mps 747 mmHg 61%
    17:00 +23°C° 0.7 mm 2 mps 747 mmHg 68%
    18:00 +21°C° 0.7 mm 2 mps 747 mmHg 74%
    19:00 +21°C° 0.7 mm 1 mps 747 mmHg 81%
    20:00 +20°C° 0.1 mm 1 mps 747 mmHg 83%
    21:00 +18°C° 0.1 mm 1 mps 747 mmHg 86%
    22:00 +16°C° 0.1 mm 1 mps 747 mmHg 89%
    23:00 +16°C° 0 mm 1 mps 746 mmHg 90%

    28 May, Tuesday

    Time Temperature Precipitation Wind Pressure Humidity
    00:00 +16°C° 0 mm 1 mps 746 mmHg 91%
    01:00 +15°C° 0 mm 1 mps 746 mmHg 92%
    02:00 +15°C° 0.5 mm 1 mps 746 mmHg 93%
    03:00 +15°C° 0.5 mm 1 mps 746 mmHg 94%
    04:00 +14°C° 0.5 mm 0 mps 745 mmHg 96%
    05:00 +15°C° 1 mm 1 mps 745 mmHg 95%
    06:00 +16°C° 1 mm 1 mps 745 mmHg 95%
    07:00 +16°C° 1 mm 1 mps 745 mmHg 95%
    08:00 +16°C° 0.7 mm 1 mps 745 mmHg 94%
    09:00 +18°C° 0.7 mm 1 mps 745 mmHg 92%
    10:00 +19°C° 0.7 mm 1 mps 745 mmHg 90%
    11:00 +19°C° 0.8 mm 1 mps 745 mmHg 87%
    12:00 +20°C° 0.8 mm 1 mps 745 mmHg 84%
    13:00 +21°C° 0.8 mm 1 mps 745 mmHg 80%
    14:00 +22°C° 1.3 mm 1 mps 745 mmHg 79%
    15:00 +22°C° 1.3 mm 1 mps 745 mmHg 77%
    16:00 +20°C° 1.3 mm 0 mps 745 mmHg 76%
    17:00 +20°C° 1.4 mm 0 mps 745 mmHg 80%
    18:00 +19°C° 1.4 mm 0 mps 745 mmHg 83%
    19:00 +18°C° 1.4 mm 0 mps 745 mmHg 87%
    20:00 +19°C° 0.9 mm 1 mps 745 mmHg 89%
    21:00 +18°C° 0.9 mm 1 mps 746 mmHg 91%
    22:00 +18°C° 0.9 mm 1 mps 746 mmHg 93%
    23:00 +16°C° 0.3 mm 2 mps 746 mmHg 94%
    Show more